Location: Burgwalden
(48.2830°N, 10.7576°E)
Time: 03:03:01
(UTC+00:00)

Cosmos 2237 Rocket - Pass Details

Date: 26 September 2023
Orbit: 835 x 848 km, 71.0° (Epoch: 04 December)

Event Time Altitude Azimuth Distance (km) Brightness Sun altitude
Rises 04:17:40 0° 334° (NNW) 3,423 5.2 -9.3°
Reaches altitude 10° 04:20:15 10° 341° (NNW) 2,483 4.5 -8.8°
Maximum altitude 04:25:43 46° 54° (NE) 1,125 3.4 -7.9°
Drops below altitude 10° 04:31:09 10° 128° (SE) 2,463 5.4 -7.0°
Sets 04:33:41 0° 134° (SE) 3,392 6.0 -6.6°
